RJSFRJAH

Guest
Details From RJSF - Fukushima
To RJAH - HYAKURI
Flight Number -
Tags generated
Created
Modified
Stats Distance 63 nm / 116 km
Max Altitude 4,600 ft / 1,402 m
Waypoints 3
Social Downloads 0
Likes 0
Share VATSIM

Download

Looking for another format? Having issues loading an existing format? Contact us
Advertisement - Login to hide

Notes

Basic altitude profile: - Ascent Rate: 2500ft/min - Ascent Speed: 250kts - Cruise Altitude: 35000ft - Cruise Speed: 420kts - Descent Rate: 1500ft/min - Descent Speed: 250kts

Route

RJSF MILKY RJAH

ID Type Via Altitude Latitude Longitude Leg Dist Tot Dist Heading (true) Name
O RJSF APT - 0 ft / 0 m 37.22743˚ 140.42797˚ - 0 nm - Fukushima
MILKY FIX - 4,600 ft / 1,402 m 36.54578˚ 140.43848˚ 40 nm 40 nm 179° / 179° -
O RJAH APT - 0 ft / 0 m 36.18107˚ 140.41543˚ 21 nm 62 nm 183° / 183° HYAKURI

Altitude Profile

Advertisement - Login to hide

RJSF

Details ICAO RJSF (FKS)
Name Fukushima
Region Japan
Timezone Asia/Tokyo (UTC+9.0)
Stats Elevation 1,220 ft / 372 m (AMSL)
Location 37.227429° 140.427974°
Runways 1
Magnetic Variation 7.892° W

METAR

RJSF 240800Z 33014KT 9999 FEW030 20/08 Q1006

Decode

TAF

TAF RJSF 240505Z 2406/2512 35015KT 9999 FEW030 SCT050 BECMG 2410/2412 01005KT BECMG 2416/2418 14004KT BECMG 2500/2503 20010KT BECMG 2506/2509 35010KT

Decode

Departure Runways

ID Width Length Bearing (true) Bearing (mag) Surface Threshold Offset Overrun Length
01 197 ft / 60 m 8,219 ft / 2,505 m 2.19° 10.08° Asphalt 0 ft / 0 m 197 ft / 60 m
19 197 ft / 60 m 8,219 ft / 2,505 m 182.19° 190.08° Asphalt 0 ft / 0 m 197 ft / 60 m

RJAH

Details ICAO RJAH (IBR)
Name HYAKURI
Region Japan
Timezone Asia/Tokyo (UTC+9.0)
Stats Elevation 105 ft / 32 m (AMSL)
Location 36.181069° 140.415431°
Runways 1
Magnetic Variation 7.557° W

METAR

RJAH 240800Z 12006KT 070V140 9999 FEW005 FEW030CB SCT050 21/15 Q1004 RETS

Decode

TAF

TAF AMD TAF AMD RJAH 240726Z 2407/2512 10010KT 8000 FEW008 BKN015 TEMPO 2407/2409 3000 TSRA BR FEW005 BKN008 FEW020CB BECMG 2414/2416 22005KT TEMPO 2414/2421 2000 BR BECMG 2500/2503 22016KT BECMG 2509/2512 22006KT

Decode

Destination Runways

ID Width Length Bearing (true) Bearing (mag) Surface Threshold Offset Overrun Length
03 150 ft / 46 m 8,891 ft / 2,710 m 19.85° 27.41° Concrete 0 ft / 0 m 1,066 ft / 325 m
21 150 ft / 46 m 8,891 ft / 2,710 m 199.85° 207.41° Concrete 0 ft / 0 m 1,066 ft / 325 m

Approach Navaids

Runway Type Ident Frequency Range Bearing (true) Bearing (mag) Slope Elevation
03 Localiser IHY 109.30 MHz 18 nm / 33 km 19.76° 27.32° - 105 ft / 32 m (AMSL)
03 Glidescope IHY 109.30 MHz 10 nm / 19 km 19.85° 27.41° 2.75° 105 ft / 32 m (AMSL)